Regional Weather Roundup
Issued by NWS

Home | Current Version | Previous Version | Graphics & Text | Print | Product List | Glossary On
Versions: 1 2 3 4 5 6 7 8 9 10 11 12 13 14 15 16 17 18 19 20 21 22 23 24 25 26 27 28 29 30 31 32 33 34 35 36 37 38 39 40 41 42 43 44 45 46 47 48 49 50
000
ASUS43 KLSX 261759
RWRMO

WEATHER SUMMARY FOR MISSOURI
NATIONAL WEATHER SERVICE SPRINGFIELD MO
1200 PM CST MON JAN 26 2015

NOTE: "FAIR" INDICATES FEW OR NO CLOUDS BELOW 12,000 FEET WITH NO
       SIGNIFICANT WEATHER AND/OR OBSTRUCTIONS TO VISIBILITY.
       CURRENT SKY AND/OR WEATHER CONDITIONS ARE NOT AVAILABLE FOR
       CHILLICOTHE AND FARMINGTON.

MOZ001>031-035>038-043-044-053-054-261900-
...NORTHERN AND WESTERN MISSOURI...

CITY           SKY/WX    TMP DP  RH WIND       PRES   REMARKS
KANSAS CTY INT MOSUNNY   49  34  56 W12       29.92F
6HR MIN TEMP:  23; 6HR MAX TEMP:  49;

KANSAS C DTWN  SUNNY     49  32  52 W8        29.93F
6HR MIN TEMP:  29; 6HR MAX TEMP:  49;

LEE`S SUMMIT   SUNNY     48  33  56 SW16      29.92F
6HR MIN TEMP:  26; 6HR MAX TEMP:  48;

ST JOSEPH        N/A     49  36  61 W10       29.92F
6HR MIN TEMP:  22; 6HR MAX TEMP:  49;

CHILLICOTHE      N/A     47  34  60 W9G20     29.87F
6HR MIN TEMP:  25; 6HR MAX TEMP:  47;

KIRKSVILLE     PTSUNNY   42  33  70 W17G23    29.85F
6HR MIN TEMP:  30; 6HR MAX TEMP:  42;


$$
MOZ066>068-077>081-088>096-101>105-261900-
...SOUTHWEST MISSOURI...

CITY           SKY/WX    TMP DP  RH WIND       PRES   REMARKS
SPRINGFIELD    SUNNY     46  32  58 SW12      29.99F
6HR MIN TEMP:  27; 6HR MAX TEMP:  47;

JOPLIN         SUNNY     49  32  52 SW18G28   30.02F
6HR MIN TEMP:  24; 6HR MAX TEMP:  49;


$$
MOZ032>034-039>042-045>050-055>058-069>072-261900-
...CENTRAL MISSOURI...

CITY           SKY/WX    TMP DP  RH WIND       PRES   REMARKS
COLUMBIA       PTSUNNY   42  33  70 SW15      29.91F
6HR MIN TEMP:  29; 6HR MAX TEMP:  42;

JEFFERSON CITY PTSUNNY   43  31  62 SW12      29.94F
6HR MIN TEMP:  31; 6HR MAX TEMP:  43;

ROLLA          PTSUNNY   40  31  70 SW15      29.92F
6HR MIN TEMP:  29; 6HR MAX TEMP:  41;

SEDALIA        SUNNY     46  34  62 SW16G22   29.94F
6HR MIN TEMP:  28; 6HR MAX TEMP:  46;

OSAGE BEACH    SUNNY     45  30  57 SW10      29.95F

$$
MOZ051-052-059>065-261900-
...EAST CENTRAL MISSOURI...

CITY           SKY/WX    TMP DP  RH WIND       PRES   REMARKS
ST LOUIS INTL  CLOUDY    35  26  69 S8        29.97F WCI  29
6HR MIN TEMP:  25; 6HR MAX TEMP:  35;

SPIRIT OF STL  CLOUDY    35  27  72 SW8G16    29.95F WCI  29
6HR MIN TEMP:  24; 6HR MAX TEMP:  35;

ST CHARLES     CLOUDY    32  28  85 S12       29.93F WCI  23
6HR MIN TEMP:  26; 6HR MAX TEMP:  32;


$$
MOZ072>076-082>087-097>100-106>115-261900-
...SOUTH CENTRAL AND SOUTHEAST MISSOURI...

CITY           SKY/WX    TMP DP  RH WIND       PRES   REMARKS
CAPE GIRARDEAU CLOUDY    36  27  69 NW7       30.04F
6HR MIN TEMP:  29; 6HR MAX TEMP:  36;

FARMINGTON     CLOUDY    34  28  80 MISG      30.02F
6HR MIN TEMP:  27; 6HR MAX TEMP:  34;

POPLAR BLUFF   CLOUDY    39  27  62 W7        30.05F
6HR MIN TEMP:  31; 6HR MAX TEMP:  40;

WEST PLAINS    SUNNY     43  29  57 W9        30.03F
6HR MIN TEMP:  32; 6HR MAX TEMP:  43;


$$



USA.gov is the U.S. government's official web portal to all federal, state and local government web resources and services.